Location: Trebic
(49.2170°N, 15.8830°E)
Time: 10:13:14
(UTC+02:00)

Transit 4A - Pass Details

Date: 01 September 2019
Orbit: 865 x 980 km, 66.8° (Epoch: 15 September)

Event Time Altitude Azimuth Distance (km) Brightness Sun altitude
Rises 02:43:40 0° 318° (NW) 3,622 11.2 -27.8°
Reaches altitude 10° 02:46:34 10° 307° (NW) 2,654 10.3 -27.5°
Enters shadow 02:48:47 20° 291° (WNW) 2,032 9.5 -27.3°
Maximum altitude 02:51:40 28° 251° (WSW) 1,648 - -27.1°
Drops below altitude 10° 02:56:39 10° 194° (SSW) 2,571 - -26.6°
Sets 02:59:25 0° 183° (S) 3,489 - -26.4°
